STARLINK-4602 (53629 NORAD) Tracking and Keplerian Element Data

This shows tracking and keplerian element data for the satellite.

Feedback or suggestion? Click here.




ElementValue
Catalog53629
NameSTARLINK-4602
Epoch Orbit130
Epoch Day324.91667824
Epoch Year2022
RAAN242.2341
Inclination53.2173
Eccentricity0.0001935
Argument of Perigee48.7777
Mean Anonmoly170.8922
Mean Motion15.08857671
Decay Rate-0.0001523
L11 53629U 22104AT 22324.91667824 -.00015230 00000+0 -94032-3 0 9993
L22 53629 53.2173 242.2341 0001935 48.7777 170.8922 15.08857671 1305



Live tracking and technical data element details for STARLINK-4602 (NORAD 53629). STARLINK-4602 can be tracked NOW for your location showing map with azimuth and elevation plus other details from your city location.







IsCatalogInMostPopularTable: catalog: 53629, numindb: -1

Insert: records affected: 1


GetName: 53629 STARLINK-4602

Hit Count: inserted at: Thu, 08 Dec 2022 10:09:38 GMT